[[{"header":{"parameterUnit":"m.s-1","parameterCategory":1,"la1":30.2991,"la2":30.254,"lo1":-89.0895,"lo2":-89.0444,"dy":0.0017,"dx":0.0017,"nx":28,"ny":28,"refTime":"2023-11-16T03:00:00:Z","depth":0,"parameterNumber":2,"parameterNumberName":"U-component_of_WINDS"},"data":[0,0,0,0,0,0,0,0,0,0,0,0,0,0,0,0,0,0,0,0,0,0,0,0,0,0,0,0,0,0,0,0,0,0,0,0,0,0,0,0,0,0,0,0,0,0,0,0,0,0,0,0,0,0,0,0,0,0,-1.241,-1.241,0,-1.2458,-1.2459,-1.2459,-1.2425,-1.2424,-1.2422,-1.2421,-1.2471,-1.2474,-1.2476,0,0,0,0,0,0,0,0,0,0,0,0,0,-1.2288,-1.229,-1.241,-1.241,-1.2411,-1.2458,-1.2459,-1.2459,-1.2426,-1.2424,-1.2422,-1.242,-1.247,-1.2473,-1.2477,0,0,0,0,0,0,0,0,0,0,0,0,0,-1.2339,-1.2291,-1.241,-1.24,-1.2399,-1.2458,-1.2459,-1.2459,-1.2426,-1.2424,-1.2421,-1.2419,-1.2469,-1.2473,-1.2477,-1.2548,0,0,-1.249,-1.2492,0,0,0,0,0,0,0,0,-1.2336,-1.2344,-1.24,-1.24,-1.24,-1.2433,-1.2434,-1.2489,-1.2426,-1.2416,-1.2421,-1.2418,-1.246,-1.2465,-1.2479,-1.2551,-1.2553,-1.249,-1.2493,-1.2494,-1.2496,0,0,0,0,0,0,0,-1.2333,-1.2341,-1.2429,-1.2401,-1.2401,-1.2393,-1.2398,-1.2444,-1.245,-1.2417,-1.2414,-1.242,-1.246,-1.2475,-1.248,-1.2554,-1.249,-1.2494,-1.2496,-1.2498,-1.2686,-1.2688,0,0,0,0,0,0,-1.233,-1.2339,-1.2427,-1.243,-1.2362,-1.2397,-1.2402,-1.2425,-1.245,-1.2451,-1.2422,-1.2419,-1.2469,-1.2475,-1.2482,-1.2567,-1.2494,-1.2498,-1.2501,-1.2683,-1.2686,-1.2689,0,0,0,0,0,0,-1.2328,-1.2338,-1.2425,-1.2384,-1.2394,-1.2401,-1.2427,-1.2427,-1.2443,-1.2454,-1.2455,-1.2437,-1.2468,-1.2476,-1.2532,-1.2568,-1.25,-1.2504,-1.268,-1.2684,-1.2687,-1.2738,0,0,0,0,0,0,-1.2324,-1.2338,-1.2365,-1.2385,-1.2397,-1.2475,-1.2429,-1.243,-1.245,-1.2445,-1.2468,-1.247,-1.2467,-1.2526,-1.2536,-1.2573,-1.2507,-1.2677,-1.2682,-1.2686,-1.2733,-1.2743,-1.2751,0,0,0,0,0,-1.232,-1.2377,-1.2366,-1.2377,-1.2431,-1.2477,-1.2484,-1.2479,-1.2453,-1.248,-1.2487,-1.2469,-1.2562,-1.2532,-1.2543,-1.2581,-1.2675,-1.268,-1.2686,-1.2729,-1.2741,-1.2751,0,0,0,0,0,0,-1.2362,-1.238,-1.2368,-1.2433,-1.2454,-1.2471,-1.2506,-1.2492,-1.2521,-1.2515,-1.2508,-1.2514,-1.2572,-1.2582,-1.2548,-1.2651,-1.2614,-1.2622,-1.2643,-1.2654,-1.2663,-1.266,-1.2511,0,0,0,0,0,-1.2378,-1.2415,-1.2428,-1.2484,-1.2495,-1.2499,-1.2519,-1.2513,-1.2534,-1.2543,-1.2554,-1.2576,-1.261,-1.2632,-1.2664,-1.2733,-1.2738,-1.2765,-1.2774,-1.2782,-1.2789,-1.2826,-1.2839,-1.2707,-1.2707,-1.2707,0,0,-1.2414,-1.2428,-1.2451,-1.2493,-1.2508,-1.2546,-1.2506,-1.2548,-1.2576,-1.2549,-1.2603,-1.2612,-1.2635,-1.2698,-1.2726,-1.2708,-1.2826,-1.2789,-1.2795,-1.2798,-1.2833,-1.2846,-1.2857,-1.2711,-1.271,-1.271,0,0,-1.2497,-1.2511,-1.256,-1.2576,-1.2599,-1.2601,-1.2613,-1.2632,-1.2637,-1.269,-1.2671,-1.2704,-1.2763,-1.278,-1.2797,-1.2886,-1.287,-1.2896,-1.2945,-1.2981,-1.2991,-1.3,-1.3033,-1.3044,-1.2904,-1.2904,-1.2904,0,-1.2538,-1.2594,-1.2586,-1.2629,-1.2648,-1.2626,-1.2675,-1.269,-1.2723,-1.2737,-1.2716,-1.2789,-1.2803,-1.287,-1.2891,-1.2905,-1.2919,-1.2894,-1.299,-1.2999,-1.3008,-1.3038,-1.305,-1.2907,-1.2906,-1.2906,-1.2906,0,-1.2643,-1.2682,-1.2718,-1.275,-1.2773,-1.2819,-1.2819,-1.2843,-1.2835,-1.2839,-1.2893,-1.2909,-1.2944,-1.2959,-1.2952,-1.3025,-1.3013,-1.2991,-1.2954,-1.3024,-1.3052,-1.3064,-1.2911,-1.291,-1.2909,-1.2908,0,0,-1.2755,-1.2782,-1.2796,-1.281,-1.2834,-1.2864,-1.2908,-1.2942,-1.2963,-1.2986,-1.3023,-1.3073,-1.3053,-1.3072,-1.3066,-1.3098,-1.3167,-1.3072,-1.3073,-1.309,-1.3249,-1.3265,-1.3279,-1.3157,-1.3159,-1.316,-1.3247,0,-1.284,-1.2918,-1.2912,-1.2986,-1.3021,-1.3,-1.3038,-1.3057,-1.3062,-1.3093,-1.3098,-1.3133,-1.3104,-1.3115,-1.3146,-1.3153,-1.3199,-1.3146,-1.3192,-1.3193,-1.3187,-1.3294,-1.3312,-1.3393,-1.3258,-1.326,-1.3261,0,-1.295,-1.2977,-1.3054,-1.3072,-1.3087,-1.3122,-1.3152,-1.3182,-1.3202,-1.3203,-1.3224,-1.3213,-1.3257,-1.3218,-1.328,-1.3244,-1.3262,-1.3268,-1.3271,-1.3276,-1.3232,-1.3302,-1.3419,-1.3431,-1.3279,-1.3277,-1.3276,0,-1.3025,-1.308,-1.3133,-1.3146,-1.3168,-1.3193,-1.3204,-1.3222,-1.3242,-1.3269,-1.3282,-1.3313,-1.333,-1.3355,-1.3352,-1.3324,-1.3415,-1.3375,-1.3417,-1.3417,-1.3438,-1.3437,-1.356,-1.3449,-1.3448,-1.3448,-1.3448,0,-1.3121,-1.3169,-1.3167,-1.32,-1.3253,-1.3246,-1.3298,-1.3306,-1.3322,-1.3356,-1.3339,-1.3371,-1.3365,-1.3397,-1.3395,-1.3446,-1.3454,-1.3456,-1.3456,-1.3459,-1.3458,-1.3471,-1.3466,-1.3451,-1.3451,-1.345,-1.3449,0,-1.3215,-1.3215,-1.3271,-1.3288,-1.3293,-1.3331,-1.3345,-1.3376,-1.3378,-1.3421,-1.3431,-1.3435,-1.3472,-1.3471,-1.3513,-1.3512,-1.3575,-1.3567,-1.3568,-1.3567,-1.3609,-1.3605,-1.3745,-1.3763,-1.3639,-1.364,-1.3641,0,-1.3276,-1.3313,-1.3333,-1.3354,-1.3366,-1.34,-1.3421,-1.3415,-1.3437,-1.3463,-1.3491,-1.3525,-1.3553,-1.3613,-1.362,-1.3652,-1.3645,-1.3691,-1.365,-1.3651,-1.3646,-1.3644,-1.3648,-1.37,-1.3701,-1.3702,-1.3703,0,-1.3386,-1.3385,-1.3415,-1.3445,-1.347,-1.3494,-1.3516,-1.3534,-1.353,-1.3556,-1.3593,-1.3614,-1.3657,-1.3692,-1.3722,-1.3733,-1.3718,-1.3716,-1.3728,-1.3732,-1.3731,-1.3732,-1.3591,-1.3713,-1.3712,-1.3712,-1.3711,-1.3711,-1.3466,-1.3497,-1.3516,-1.3551,-1.3566,-1.3587,-1.3616,-1.3622,-1.3653,-1.3687,-1.3681,-1.3723,-1.3742,-1.3781,-1.3794,-1.3827,-1.381,-1.3827,-1.3831,-1.3836,-1.3841,-1.3725,-1.3832,-1.3832,-1.3832,-1.3831,-1.3831,0,-1.3576,-1.3586,-1.3618,-1.3649,-1.3676,-1.3658,-1.3681,-1.3705,-1.3742,-1.3761,-1.3788,-1.3831,-1.3864,-1.3873,-1.3906,-1.393,-1.3924,-1.3938,-1.3937,-1.394,-1.3853,-1.384,-1.3943,-1.3943,-1.3943,-1.3943,-1.3943,-1.3943,-1.3636,-1.3688,-1.3688,-1.3748,-1.3758,-1.3798,-1.3813,-1.3832,-1.3847,-1.3895,-1.3923,-1.3928,-1.3943,-1.3976,-1.4006,-1.4008,-1.4021,-1.4039,-1.4038,-1.3957,-1.3946,-1.3935,-1.3923,-1.4042,-1.4042,-1.4122,-1.4123,-1.4123]},{"header":{"parameterUnit":"m.s-1","parameterCategory":1,"la1":30.2991,"la2":30.254,"lo1":-89.0895,"lo2":-89.0444,"dy":0.0017,"dx":0.0017,"nx":28,"ny":28,"refTime":"2023-11-16T03:00:00:Z","depth":0,"parameterNumber":3,"parameterNumberName":"V-component_of_WINDS"},"data":[0,0,0,0,0,0,0,0,0,0,0,0,0,0,0,0,0,0,0,0,0,0,0,0,0,0,0,0,0,0,0,0,0,0,0,0,0,0,0,0,0,0,0,0,0,0,0,0,0,0,0,0,0,0,0,0,0,0,-2.9811,-2.9811,0,-2.9802,-2.9801,-2.9801,-2.9737,-2.9735,-2.9734,-2.9732,-2.9723,-2.9724,-2.9725,0,0,0,0,0,0,0,0,0,0,0,0,0,-2.9773,-2.9774,-2.9811,-2.9811,-2.9811,-2.9802,-2.9801,-2.9801,-2.9737,-2.9735,-2.9733,-2.9731,-2.9722,-2.9724,-2.9725,0,0,0,0,0,0,0,0,0,0,0,0,0,-2.9779,-2.9774,-2.9811,-2.9778,-2.9774,-2.9802,-2.9801,-2.9801,-2.9737,-2.9735,-2.9733,-2.973,-2.9722,-2.9724,-2.9725,-2.9784,0,0,-2.9731,-2.9732,0,0,0,0,0,0,0,0,-2.9779,-2.9781,-2.9783,-2.978,-2.9776,-2.9768,-2.9785,-2.9796,-2.9738,-2.9751,-2.9732,-2.9729,-2.974,-2.974,-2.9743,-2.9784,-2.9783,-2.9731,-2.9732,-2.9733,-2.9734,0,0,0,0,0,0,0,-2.9779,-2.9781,-2.9807,-2.9783,-2.9779,-2.9763,-2.9761,-2.9786,-2.9759,-2.975,-2.9745,-2.9745,-2.9737,-2.9742,-2.9743,-2.9783,-2.9731,-2.9733,-2.9734,-2.9735,-2.9871,-2.9873,0,0,0,0,0,0,-2.9783,-2.9781,-2.9808,-2.9807,-2.9772,-2.9765,-2.9764,-2.9773,-2.9758,-2.9754,-2.9747,-2.9742,-2.974,-2.9741,-2.9742,-2.981,-2.9733,-2.9735,-2.9736,-2.9868,-2.9871,-2.9874,0,0,0,0,0,0,-2.9782,-2.9786,-2.9808,-2.9793,-2.9794,-2.9769,-2.978,-2.9774,-2.9778,-2.9756,-2.9751,-2.9757,-2.9738,-2.9739,-2.9774,-2.9809,-2.9736,-2.9737,-2.9865,-2.9869,-2.9873,-2.9946,0,0,0,0,0,0,-2.9781,-2.9786,-2.9808,-2.9794,-2.9795,-2.984,-2.9782,-2.9776,-2.9782,-2.9775,-2.9764,-2.976,-2.9736,-2.9772,-2.9776,-2.981,-2.9739,-2.9862,-2.9867,-2.9872,-2.994,-2.9952,-2.9962,0,0,0,0,0,-2.978,-2.9829,-2.981,-2.9813,-2.9822,-2.9843,-2.9843,-2.9816,-2.9785,-2.9807,-2.9792,-2.976,-2.9804,-2.9776,-2.978,-2.9815,-2.986,-2.9866,-2.9871,-2.9936,-2.995,-2.9961,0,0,0,0,0,0,-2.9849,-2.9827,-2.9805,-2.985,-2.9849,-2.9832,-2.9858,-2.9831,-2.9838,-2.9832,-2.9797,-2.9795,-2.9835,-2.9828,-2.9797,-2.9871,-2.9826,-2.9833,-2.9874,-2.9887,-2.9897,-2.9898,-2.974,0,0,0,0,0,-2.9869,-2.9887,-2.9867,-2.9909,-2.991,-2.9884,-2.9892,-2.9871,-2.9868,-2.9867,-2.9855,-2.9853,-2.9867,-2.9876,-2.9887,-2.9939,-2.9936,-2.9965,-2.9976,-2.9984,-2.9991,-3.0017,-3.003,-2.9893,-2.9893,-2.9893,0,0,-2.9911,-2.9902,-2.9915,-2.9923,-2.9919,-2.9939,-2.9884,-2.9907,-2.9921,-2.987,-2.9902,-2.9894,-2.9889,-2.9933,-2.9951,-2.9928,-3.0028,-2.9992,-2.9999,-3.0,-3.0025,-3.0038,-3.0049,-2.9897,-2.9896,-2.9895,0,0,-2.9999,-2.9993,-3.0028,-3.0025,-3.002,-3.0003,-3.0011,-2.9998,-2.999,-3.0022,-2.9983,-3.0,-3.0024,-3.0022,-3.0025,-3.0111,-3.0081,-3.0116,-3.0171,-3.0197,-3.0208,-3.0218,-3.0249,-3.026,-3.0122,-3.0122,-3.0122,0,-3.0052,-3.008,-3.0049,-3.0074,-3.0079,-3.0033,-3.0068,-3.0066,-3.0065,-3.0069,-3.0044,-3.0073,-3.0067,-3.0109,-3.013,-3.0133,-3.0142,-3.0117,-3.0209,-3.0218,-3.0227,-3.0256,-3.0268,-3.0126,-3.0126,-3.0125,-3.0125,0,-3.0146,-3.0166,-3.0194,-3.0194,-3.0202,-3.0232,-3.0205,-3.0216,-3.0194,-3.018,-3.0213,-3.0204,-3.0212,-3.022,-3.0199,-3.026,-3.0246,-3.0215,-3.017,-3.0245,-3.0271,-3.0282,-3.0132,-3.0131,-3.013,-3.0129,0,0,-3.0276,-3.0258,-3.0269,-3.0269,-3.026,-3.0274,-3.0302,-3.031,-3.0321,-3.0322,-3.0344,-3.0365,-3.0337,-3.034,-3.0318,-3.0341,-3.041,-3.0307,-3.0307,-3.0327,-3.0477,-3.05,-3.0513,-3.039,-3.0392,-3.0394,-3.0477,0,-3.036,-3.0407,-3.0379,-3.043,-3.0448,-3.0404,-3.0429,-3.0426,-3.0413,-3.0426,-3.0412,-3.0428,-3.0389,-3.039,-3.0411,-3.0397,-3.044,-3.0391,-3.0411,-3.0412,-3.0414,-3.0527,-3.0552,-3.0631,-3.0487,-3.0489,-3.049,0,-3.0464,-3.0469,-3.0522,-3.0509,-3.0515,-3.0538,-3.0543,-3.0556,-3.0552,-3.0541,-3.0544,-3.0516,-3.0543,-3.0498,-3.0534,-3.0501,-3.0508,-3.0502,-3.0504,-3.0506,-3.0456,-3.0532,-3.0655,-3.0668,-3.0506,-3.0505,-3.0504,0,-3.0554,-3.0574,-3.0608,-3.0609,-3.0595,-3.0611,-3.0606,-3.06,-3.0606,-3.0611,-3.0615,-3.0622,-3.0627,-3.0633,-3.0608,-3.0578,-3.0648,-3.0601,-3.064,-3.064,-3.0657,-3.0656,-3.0784,-3.0661,-3.066,-3.066,-3.066,0,-3.0651,-3.0685,-3.0648,-3.0669,-3.0706,-3.0674,-3.0711,-3.0701,-3.0696,-3.0714,-3.0677,-3.0695,-3.066,-3.0675,-3.0656,-3.0688,-3.0691,-3.0683,-3.0677,-3.0686,-3.0687,-3.069,-3.0684,-3.0663,-3.0663,-3.0662,-3.0661,0,-3.0758,-3.0735,-3.0769,-3.0753,-3.0749,-3.0777,-3.0763,-3.0782,-3.0766,-3.079,-3.0793,-3.0769,-3.0784,-3.076,-3.0773,-3.0759,-3.0805,-3.0791,-3.0807,-3.0803,-3.0843,-3.084,-3.0977,-3.0994,-3.086,-3.0861,-3.0863,0,-3.0822,-3.0846,-3.0833,-3.0842,-3.0839,-3.0855,-3.0861,-3.0831,-3.0839,-3.0836,-3.0855,-3.0867,-3.0875,-3.0901,-3.0885,-3.0894,-3.088,-3.0928,-3.0881,-3.089,-3.0881,-3.088,-3.0883,-3.0938,-3.0939,-3.094,-3.0941,0,-3.0936,-3.0924,-3.0934,-3.0941,-3.095,-3.0954,-3.0955,-3.0965,-3.0933,-3.0944,-3.0959,-3.0965,-3.0977,-3.099,-3.0995,-3.099,-3.0961,-3.0956,-3.0966,-3.0975,-3.0984,-3.098,-3.0833,-3.0953,-3.0952,-3.0951,-3.0951,-3.095,-3.1024,-3.1044,-3.1037,-3.105,-3.1048,-3.105,-3.1067,-3.1053,-3.1065,-3.1073,-3.1054,-3.1073,-3.1068,-3.1072,-3.107,-3.1085,-3.1064,-3.1078,-3.1081,-3.1085,-3.1092,-3.0981,-3.1086,-3.1085,-3.1085,-3.1085,-3.1084,0,-3.1137,-3.113,-3.1143,-3.1145,-3.1156,-3.1127,-3.1127,-3.1137,-3.1155,-3.1152,-3.1161,-3.1178,-3.119,-3.1175,-3.1184,-3.1199,-3.1186,-3.1202,-3.1201,-3.1201,-3.111,-3.1101,-3.1213,-3.1213,-3.1213,-3.1213,-3.1213,-3.1213,-3.1197,-3.123,-3.1216,-3.1247,-3.124,-3.1259,-3.1261,-3.1263,-3.1261,-3.1282,-3.1291,-3.1281,-3.1273,-3.1282,-3.1291,-3.1286,-3.1292,-3.1313,-3.1304,-3.1219,-3.1207,-3.1195,-3.1186,-3.1315,-3.1315,-3.1393,-3.1394,-3.1395]}]]